Tracking 31027 objects as of 19-Jul-2025
HD Live streaming from Space Station
objects crossing your sky now

COSMOS 1285 DEB

Track COSMOS 1285 DEB now!


NORAD ID: 26680
Int'l Code: 1981-071L
Perigee: 747.5 km
Apogee: 40,040.5 km
Inclination: 63.6 °
Period: 726.3 minutes
Semi major axis: 26765 km
RCS: 0.3981 m2 (medium)
Launch date: August 4, 1981
Source: Commonwealth of Independent States (former USSR) (CIS)
Launch site: PLESETSK MISSILE AND SPACE COMPLEX (PKMTR)

Note: This is SATELLITE DEBRIS
Your satellite tracking list
FLOCK 4V 13
Track 1 satellite(s)




NASA's NSSDC Master Catalog

Two Line Element Set (TLE):
1 26680U 81071L   25198.98543087 -.00001284  00000-0  00000-0 0  9994
2 26680  63.5554  55.0588 7340357  43.8156 355.2151  1.98267426201379
Source of the keplerian elements: AFSPC